[[{"header":{"parameterUnit":"m.s-1","parameterCategory":1,"la1":30.2991,"la2":30.254,"lo1":-89.0895,"lo2":-89.0444,"dy":0.0017,"dx":0.0017,"nx":28,"ny":28,"refTime":"2025-03-19T21:00:00:Z","depth":0,"parameterNumber":2,"parameterNumberName":"U-component_of_WINDS"},"data":[0,0,0,0,0,0,0,0,0,0,0,0,0,0,0,0,0,0,0,0,0,0,0,0,0,0,0,0,0,0,0,0,0,0,0,0,0,0,0,0,0,0,0,0,0,0,0,0,0,0,0,0,0,0,0,0,0,0,0.3121,0.312,0,0.3009,0.3008,0.3007,0.2953,0.2953,0.2953,0.2953,0.2835,0.2832,0.2829,0,0,0,0,0,0,0,0,0,0,0,0,0,0.3286,0.3284,0.3122,0.312,0.3119,0.301,0.3008,0.3006,0.2953,0.2953,0.2953,0.2953,0.2836,0.2832,0.2828,0,0,0,0,0,0,0,0,0,0,0,0,0,0.3199,0.3283,0.3122,0.3079,0.3074,0.301,0.3008,0.3006,0.2953,0.2953,0.2953,0.2954,0.2837,0.2833,0.2828,0.2796,0,0,0.2813,0.2811,0,0,0,0,0,0,0,0,0.3204,0.3193,0.3087,0.3082,0.3076,0.2995,0.3023,0.2936,0.2953,0.2999,0.2953,0.2954,0.2888,0.2879,0.2858,0.2791,0.2786,0.2813,0.281,0.2808,0.2806,0,0,0,0,0,0,0,0.321,0.3197,0.3077,0.3085,0.3079,0.3065,0.3052,0.3006,0.2944,0.2995,0.2991,0.2979,0.2885,0.2863,0.2855,0.2784,0.2813,0.2809,0.2806,0.2804,0.2685,0.2685,0,0,0,0,0,0,0.3223,0.3202,0.3081,0.3074,0.3142,0.3062,0.3048,0.3021,0.2945,0.2933,0.2979,0.2977,0.2871,0.286,0.285,0.2808,0.2808,0.2803,0.2801,0.2685,0.2685,0.2685,0,0,0,0,0,0,0.3227,0.3213,0.3085,0.3137,0.312,0.3059,0.3029,0.3019,0.2996,0.2932,0.2921,0.2967,0.287,0.2857,0.281,0.2803,0.2801,0.2797,0.2686,0.2685,0.2685,0.2724,0,0,0,0,0,0,0.3232,0.3215,0.3203,0.3137,0.3117,0.3048,0.3029,0.3017,0.2989,0.2985,0.2918,0.2907,0.2869,0.2818,0.2806,0.2797,0.2793,0.2686,0.2685,0.2685,0.2723,0.2725,0.2726,0,0,0,0,0,0.3238,0.3217,0.3202,0.3188,0.3101,0.3048,0.3036,0.2994,0.2988,0.2975,0.2934,0.2909,0.2806,0.2814,0.2799,0.2789,0.2686,0.2686,0.2685,0.2722,0.2724,0.2726,0,0,0,0,0,0,0.3282,0.3208,0.3191,0.3148,0.3105,0.3039,0.3022,0.2998,0.2955,0.2953,0.2901,0.2886,0.2844,0.2812,0.2821,0.2754,0.2744,0.274,0.2777,0.2778,0.278,0.2789,0.2789,0,0,0,0,0,0.3288,0.3252,0.3188,0.3157,0.3136,0.3083,0.3058,0.303,0.2982,0.2963,0.2918,0.2872,0.2829,0.2802,0.2759,0.2718,0.2702,0.2704,0.2705,0.2707,0.2705,0.268,0.268,0.2683,0.2683,0.2683,0,0,0.3297,0.3252,0.3233,0.3165,0.3128,0.3091,0.3068,0.303,0.3001,0.2957,0.291,0.2876,0.2821,0.2777,0.2756,0.2749,0.27,0.2706,0.2708,0.2705,0.2679,0.2679,0.2679,0.2682,0.2682,0.2683,0,0,0.3296,0.3259,0.3229,0.3193,0.3138,0.3102,0.3095,0.3033,0.3009,0.2962,0.2927,0.2892,0.282,0.2782,0.2753,0.2738,0.2714,0.2726,0.2735,0.2711,0.2711,0.271,0.2705,0.2703,0.2723,0.2723,0.2723,0,0.3315,0.3259,0.3216,0.318,0.3151,0.311,0.3079,0.3045,0.2979,0.2959,0.2953,0.2861,0.2821,0.2767,0.2764,0.2742,0.2731,0.2733,0.2715,0.2714,0.2713,0.2706,0.2704,0.2725,0.2725,0.2725,0.2725,0,0.3285,0.3246,0.3228,0.3167,0.3135,0.3102,0.3053,0.3026,0.3001,0.2966,0.2918,0.2869,0.2815,0.28,0.2774,0.2742,0.274,0.2725,0.2714,0.2715,0.2708,0.2706,0.2728,0.2727,0.2727,0.2726,0,0,0.3307,0.3223,0.3217,0.3189,0.3125,0.3094,0.3058,0.3007,0.2985,0.2941,0.2909,0.2848,0.2834,0.2801,0.2771,0.275,0.2741,0.2737,0.2735,0.2739,0.2703,0.2714,0.2713,0.2725,0.2724,0.2723,0.2707,0,0.3297,0.3233,0.3194,0.3145,0.3109,0.307,0.3038,0.2996,0.2962,0.2925,0.2887,0.2846,0.283,0.281,0.2788,0.2747,0.2733,0.2748,0.2693,0.2692,0.2708,0.2709,0.2721,0.2708,0.2704,0.2704,0.2704,0,0.3277,0.3235,0.3183,0.3124,0.3107,0.308,0.303,0.2996,0.2946,0.2923,0.2887,0.2856,0.2815,0.2808,0.2751,0.2762,0.2737,0.2713,0.2712,0.2705,0.2698,0.2701,0.2703,0.2701,0.2699,0.2699,0.27,0,0.3299,0.3229,0.3189,0.3165,0.3095,0.3077,0.3047,0.2997,0.2969,0.2925,0.2906,0.2857,0.283,0.2792,0.2748,0.2747,0.2695,0.2684,0.2674,0.2675,0.2665,0.2666,0.2662,0.265,0.265,0.265,0.265,0,0.3291,0.3261,0.3198,0.3173,0.3138,0.3092,0.3058,0.3024,0.298,0.2947,0.291,0.288,0.2824,0.2787,0.2752,0.271,0.2698,0.2677,0.2668,0.268,0.2683,0.2663,0.2662,0.2649,0.2649,0.2649,0.2649,0,0.3309,0.3266,0.322,0.3158,0.3141,0.3118,0.3064,0.3038,0.3003,0.2962,0.2949,0.2893,0.2847,0.28,0.2737,0.2714,0.2672,0.266,0.269,0.2685,0.2677,0.2678,0.266,0.2655,0.2647,0.2647,0.2647,0,0.3307,0.3283,0.3219,0.3195,0.3166,0.3128,0.31,0.3053,0.3025,0.2967,0.2947,0.2899,0.2858,0.2785,0.2738,0.269,0.2676,0.2673,0.2668,0.2681,0.2675,0.2677,0.2674,0.2674,0.2675,0.2675,0.2675,0,0.3308,0.3288,0.3249,0.3203,0.317,0.3131,0.309,0.3072,0.3018,0.2987,0.2941,0.2909,0.2845,0.2797,0.2743,0.271,0.2683,0.2677,0.2672,0.2684,0.2702,0.2692,0.2694,0.2678,0.2677,0.2677,0.2677,0.2677,0.3315,0.3292,0.3244,0.3202,0.3167,0.313,0.3102,0.3064,0.3025,0.2971,0.2945,0.2898,0.2848,0.2774,0.2741,0.2703,0.2695,0.2688,0.2686,0.2685,0.2688,0.2709,0.2693,0.2692,0.2692,0.2692,0.2692,0,0.3314,0.3281,0.3243,0.3188,0.3155,0.3134,0.3088,0.3061,0.302,0.2977,0.2938,0.2883,0.2837,0.2786,0.2736,0.2715,0.2701,0.2703,0.2704,0.2697,0.2697,0.2707,0.2715,0.2715,0.2715,0.2715,0.2715,0.2715,0.3309,0.3269,0.3244,0.3185,0.3152,0.3107,0.3083,0.3048,0.3013,0.2955,0.2916,0.2885,0.2838,0.2784,0.274,0.2726,0.2709,0.2714,0.2697,0.2698,0.2697,0.2695,0.2703,0.2711,0.2711,0.2699,0.2699,0.2699]},{"header":{"parameterUnit":"m.s-1","parameterCategory":1,"la1":30.2991,"la2":30.254,"lo1":-89.0895,"lo2":-89.0444,"dy":0.0017,"dx":0.0017,"nx":28,"ny":28,"refTime":"2025-03-19T21:00:00:Z","depth":0,"parameterNumber":3,"parameterNumberName":"V-component_of_WINDS"},"data":[0,0,0,0,0,0,0,0,0,0,0,0,0,0,0,0,0,0,0,0,0,0,0,0,0,0,0,0,0,0,0,0,0,0,0,0,0,0,0,0,0,0,0,0,0,0,0,0,0,0,0,0,0,0,0,0,0,0,4.569,4.5692,0,4.5845,4.5846,4.5848,4.5925,4.5925,4.5925,4.5925,4.6083,4.6087,4.6091,0,0,0,0,0,0,0,0,0,0,0,0,0,4.5463,4.5466,4.569,4.5692,4.5694,4.5844,4.5846,4.5849,4.5925,4.5925,4.5925,4.5925,4.6081,4.6086,4.6091,0,0,0,0,0,0,0,0,0,0,0,0,0,4.5583,4.5468,4.569,4.575,4.5757,4.5844,4.5847,4.5849,4.5925,4.5925,4.5925,4.5925,4.608,4.6086,4.6092,4.613,0,0,4.6111,4.6114,0,0,0,0,0,0,0,0,4.5577,4.5592,4.5739,4.5746,4.5754,4.5865,4.5824,4.5943,4.5925,4.5861,4.5925,4.5925,4.601,4.6022,4.6051,4.6138,4.6145,4.6112,4.6116,4.6118,4.612,0,0,0,0,0,0,0,4.5568,4.5586,4.5751,4.5742,4.5751,4.577,4.5787,4.5847,4.5934,4.5867,4.5873,4.589,4.6014,4.6045,4.6056,4.6147,4.6112,4.6117,4.6121,4.6124,4.6275,4.6275,0,0,0,0,0,0,4.555,4.5578,4.5746,4.5756,4.5664,4.5774,4.5793,4.583,4.5933,4.5949,4.589,4.5893,4.6034,4.6048,4.6061,4.6115,4.6118,4.6124,4.6128,4.6275,4.6275,4.6275,0,0,0,0,0,0,4.5545,4.5564,4.574,4.5669,4.5693,4.5778,4.5818,4.5833,4.5864,4.5951,4.5967,4.5905,4.6035,4.6053,4.6113,4.6121,4.6127,4.6133,4.6275,4.6275,4.6275,4.6221,0,0,0,0,0,0,4.5538,4.5562,4.5577,4.5669,4.5696,4.5789,4.5819,4.5836,4.5874,4.588,4.5969,4.5984,4.6036,4.6103,4.6119,4.613,4.6138,4.6274,4.6275,4.6275,4.6222,4.6219,4.6217,0,0,0,0,0,4.5529,4.5555,4.5577,4.5597,4.5717,4.5789,4.5805,4.5865,4.5874,4.5891,4.5947,4.5981,4.6118,4.6109,4.6128,4.614,4.6274,4.6275,4.6275,4.6224,4.622,4.6217,0,0,0,0,0,0,4.5462,4.5568,4.5594,4.565,4.571,4.5802,4.5824,4.5858,4.5917,4.592,4.5991,4.6011,4.6065,4.6109,4.6097,4.6184,4.6199,4.6204,4.6154,4.6151,4.6148,4.6137,4.6143,0,0,0,0,0,4.5453,4.5503,4.5593,4.5634,4.5663,4.5738,4.5772,4.5813,4.5878,4.5904,4.5964,4.6026,4.6084,4.6119,4.6177,4.6229,4.625,4.6247,4.6244,4.6241,4.6245,4.6278,4.6278,4.6277,4.6277,4.6277,0,0,4.5437,4.5501,4.5528,4.5622,4.5674,4.5724,4.5759,4.5811,4.5849,4.5911,4.5973,4.6019,4.6094,4.6151,4.6179,4.6189,4.625,4.6242,4.6239,4.6244,4.6278,4.6278,4.6278,4.6278,4.6278,4.6278,0,0,4.5432,4.5485,4.5526,4.5577,4.5654,4.5705,4.5714,4.5801,4.5835,4.5898,4.5946,4.5993,4.6089,4.6141,4.6179,4.6196,4.623,4.6212,4.6198,4.6229,4.6229,4.623,4.6237,4.6239,4.6215,4.6215,4.6215,0,4.5401,4.548,4.5542,4.5592,4.5633,4.5692,4.5734,4.578,4.5872,4.5899,4.5909,4.6033,4.6086,4.6157,4.6161,4.619,4.6204,4.6203,4.6224,4.6225,4.6226,4.6234,4.6237,4.6212,4.6213,4.6213,4.6213,0,4.5439,4.5492,4.5516,4.5604,4.5647,4.5693,4.5763,4.5799,4.5836,4.5885,4.595,4.6016,4.6089,4.6109,4.6145,4.6185,4.6189,4.621,4.6227,4.6223,4.6232,4.6235,4.6209,4.6209,4.621,4.6211,0,0,4.5396,4.5519,4.5527,4.5569,4.5659,4.5702,4.575,4.5822,4.5852,4.5914,4.5957,4.6038,4.6059,4.6103,4.6145,4.6172,4.6183,4.6191,4.6194,4.6188,4.6234,4.6218,4.622,4.6206,4.6207,4.6207,4.6228,0,4.5406,4.5496,4.5554,4.5621,4.5672,4.573,4.5772,4.5833,4.588,4.5931,4.5983,4.604,4.6062,4.6089,4.6119,4.6175,4.6193,4.6175,4.6248,4.625,4.6229,4.6225,4.6208,4.6224,4.6231,4.6232,4.6233,0,4.5429,4.549,4.5562,4.5648,4.5672,4.5709,4.578,4.5827,4.5897,4.593,4.5979,4.6023,4.6078,4.6089,4.6166,4.6152,4.6186,4.6218,4.622,4.6231,4.6242,4.6236,4.623,4.6233,4.6238,4.6238,4.6237,0,4.5392,4.5492,4.5549,4.5582,4.5684,4.5709,4.5753,4.5823,4.5863,4.5924,4.5951,4.6018,4.6055,4.6107,4.6168,4.617,4.6239,4.6255,4.6269,4.6267,4.6282,4.628,4.6283,4.6301,4.6301,4.6301,4.6301,0,4.5397,4.544,4.5534,4.5569,4.5619,4.5686,4.5733,4.5781,4.5843,4.5889,4.5943,4.5984,4.6062,4.6114,4.6162,4.6219,4.6235,4.6264,4.6276,4.626,4.6256,4.6284,4.6285,4.6301,4.6301,4.6301,4.6301,0,4.5365,4.543,4.5496,4.5587,4.5611,4.5644,4.5723,4.5759,4.5809,4.5867,4.5884,4.5964,4.6028,4.6093,4.6179,4.6212,4.6268,4.6284,4.6244,4.6252,4.6262,4.6261,4.6284,4.6291,4.6302,4.6302,4.6301,0,4.5365,4.5399,4.5494,4.5529,4.5572,4.5627,4.5668,4.5735,4.5776,4.5859,4.5886,4.5954,4.6012,4.6111,4.6177,4.6243,4.6262,4.6266,4.6273,4.6256,4.6265,4.6262,4.6267,4.6263,4.6263,4.6263,4.6262,0,4.5358,4.5389,4.5446,4.5515,4.5563,4.562,4.5679,4.5705,4.5784,4.5827,4.5893,4.5938,4.6027,4.6094,4.6168,4.6214,4.6252,4.6259,4.6267,4.6251,4.6227,4.6242,4.6239,4.6259,4.6259,4.6259,4.626,4.626,4.5344,4.5377,4.545,4.5512,4.5564,4.5619,4.5658,4.5714,4.577,4.5848,4.5884,4.595,4.6021,4.6125,4.617,4.6224,4.6234,4.6244,4.6247,4.6248,4.6245,4.6217,4.6237,4.6238,4.6238,4.6238,4.6238,0,4.5341,4.5391,4.5447,4.5529,4.5578,4.561,4.5677,4.5717,4.5775,4.5837,4.5893,4.597,4.6036,4.6107,4.6177,4.6206,4.6225,4.6222,4.6222,4.6232,4.6231,4.6219,4.6206,4.6206,4.6206,4.6206,4.6206,4.6206,4.5345,4.5405,4.5444,4.553,4.558,4.5646,4.5682,4.5733,4.5783,4.5867,4.5922,4.5967,4.6034,4.611,4.6172,4.6191,4.6215,4.6207,4.6231,4.6229,4.6232,4.6234,4.6223,4.6211,4.6211,4.6228,4.6229,4.6229]}]]